Home   Weather   Davenport   Past weeks

Flag for USA Past Weather in Davenport, Iowa, USA — Yesterday and Last 2 Weeks

Now
36 °F

Overcast.


Feels Like: 28 °F
Forecast: 30 / 42 °F
Wind: 12 mph from Northwest

Location: Davenport Municipal Airport

Current Time: Dec 2, 2016 at 4:27:47 pm

Latest Report: Dec 2, 2016 at 3:52 pm


Visibility: 10 mi

Pressure: 30.30 "Hg

Humidity: 73%

Dew Point: 28 °F

Location of DavenportLocation

Past Weather in Davenport — Graph

°F

Davenport Temperature Yesterday

Maximum temperature yesterday: 39 °F (at 9:52 am)
Minimum temperature yesterday: 35 °F (at 12:52 am)
Average temperature yesterday: 36 °F

High & Low Weather Summary for the Past Weeks

 TemperatureHumidityPressure
High72 °F (Nov 17, 2:52 pm)100% (Nov 23, 9:52 am)30.45 "Hg (Nov 23, 9:52 am)
Low18 °F (Nov 20, 2:52 am)36% (Nov 21, 2:52 pm)29.13 "Hg (Nov 28, 6:52 pm)
Average39 °F76%29.99 "Hg
* Reported Nov 17 2:52 pm — Dec 2 2:52 pm, Davenport, Weather by CustomWeather, © 2016

Note: Actual official high and low records may vary slightly from our data, if they occured in-between our weather recording intervals... More about our weather records

Advertising

Davenport Weather History for the Previous 24 Hours

Scroll right to see more
 ConditionsComfort  
Time TempWeatherWind HumidityBarometerVisibility
2:52 pm
Fri, Dec 2
37 °FOvercast.12 mph70%30.28 "Hg10 mi
1:52 pm38 °FOvercast.14 mph68%30.25 "Hg10 mi
12:52 pm40 °FOvercast.14 mph65%30.24 "Hg10 mi
11:52 am39 °FOvercast.14 mph70%30.24 "Hg10 mi
10:59 am39 °FOvercast.10 mph76%30.22 "Hg10 mi
9:59 am37 °FCloudy.14 mph82%30.22 "Hg10 mi
8:52 am37 °FOvercast.10 mph86%30.20 "Hg10 mi
7:52 am36 °FOvercast.8 mph89%30.19 "Hg10 mi
6:52 am35 °FOvercast.9 mph92%30.17 "Hg10 mi
6:04 am35 °FMostly cloudy.9 mph92%30.14 "Hg10 mi
5:52 am35 °FMostly cloudy.8 mph92%30.15 "Hg10 mi
4:59 am35 °FMostly cloudy.8 mph92%30.12 "Hg10 mi
3:52 am36 °FOvercast.8 mph89%30.12 "Hg10 mi
2:52 am36 °FOvercast.8 mph89%30.11 "Hg10 mi
1:52 am36 °FOvercast.9 mph89%30.10 "Hg10 mi
12:52 am36 °FOvercast.9 mph89%30.08 "Hg10 mi
11:52 pm
Thu, Dec 1
36 °FOvercast.9 mph89%30.06 "Hg10 mi
10:52 pm36 °FOvercast.12 mph85%30.05 "Hg10 mi
9:52 pm37 °FOvercast.12 mph82%30.04 "Hg10 mi
8:52 pm37 °FOvercast.9 mph82%30.03 "Hg10 mi
7:52 pm37 °FOvercast.12 mph82%30.03 "Hg10 mi
6:52 pm37 °FOvercast.12 mph82%30.02 "Hg10 mi
5:52 pm37 °FOvercast.12 mph82%30.00 "Hg10 mi
4:52 pm37 °FOvercast.13 mph82%29.98 "Hg10 mi
Weather by CustomWeather, © 2016

See weather overviewHow to use our weather pages